Terminal Aerodrome Forecast
Issued by NWS Atlanta, GA

Home | Current Version | Previous Version | Text Only | Print | Product List | Glossary On
Versions: 1 2 3 4 5 6 7 8 9 10 11 12 13 14 15 16 17 18 19 20 21 22 23 24 25 26 27 28 29 30 31 32 33 34 35 36 37 38 39 40 41 42 43
161
FTUS42 KFFC 081725
TAFATL
TAF
KATL 081725Z 0818/0924 33015G25KT P6SM FEW060 BKN120
     FM090000 33012KT P6SM BKN150
     FM090900 34010KT P6SM BKN200
     FM091500 34012G18KT P6SM SCT250
     FM092200 33010KT P6SM SKC=

USA.gov is the U.S. government's official web portal to all federal, state and local government web resources and services.